www.pogodaiklimat.ru

Погода и климат >> Архив погоды >> Россия >> Крым >> Симферополь


АРХИВ ПОГОДЫ в Симферополе

Время (UTC), дата Ветер
(напр.,м/с)
 
Видим.   Явления Облачность Т
(С)
Тd
(С)
f
(%)
Тe
(С)
Тes
(С)
Комфортность P
(гПа)
Po
(гПа)
Тmin
(С)
Tmax
(С)
R
(мм)
S
(см)
21 14.02 СЗ 7-10
{16}
3500 м слабый переохл. дождь (гололёд) {снег} [диам. гололёда 2 мм] 10/8 600 м
[Frnb As op]
-2.4 -3.1 95 -10 -10 прохладно 1018.6 995.7
00 15.02 СЗ 4
{10}
10 км снежные зёрна {дождь} 10/10 150 м
[St]
-3.0 -3.7 95 -9 -9 прохладно 1019.1 996.1
03 15.02 СЗ 3 10 км в посл. час зёрна {снег} 10/10 100 м
[St]
-2.3 -2.9 96 -8 -8 по сезону 1020.1 997.1
06 15.02 СЗ 4 10 км {снег} [диам. гололёда 2 мм] 10/10 180 м
[St]
-1.8 -2.5 95 -8 -8 по сезону 1021.3 998.4 -3.0 2 <0.5
09 15.02 С 5 10 км [диам. гололёда 2 мм] 10/10 800 м
[Sc]
+0.8 -0.8 89 -5 -5 по сезону 1022.4 999.7
12 15.02 СЗ 7
{11}
10 км 10/10 540 м
[Sc]
+1.0 -2.1 80 -6 -6 холодно 1022.8 1000.1
15 15.02 С 6 10 км в посл. час крупа {ливн. осадки} 8/8 1500 м
[Cb calv]
+0.2 -3.5 76 -6 -6 прохладно 1024.8 1001.9
18 15.02 С 4 10 км {ливн. осадки} ясно -2.6 -4.5 87 -9 -9 прохладно 1027.7 1004.5 +2.1 0.0
21 15.02 С 4 10 км 3/3 1080 м
[Sc]
-3.9 -5.7 87 -10 -10 прохладно 1029.7 1006.4
00 16.02 С 3 10 км 10/10 930 м
[Sc]
-3.9 -5.4 89 -9 -9 прохладно 1031.1 1007.8
03 16.02 В 2 10 км ясно -6.5 -7.7 91 -11 -11 холодно 1032.1 1008.5
06 16.02 СВ 2 10 км ясно -5.5 -7.6 85 -10 -9 прохладно 1033.3 1009.8 -7.8 <0.5
09 16.02 СВ 5 10 км ясно -0.6 -7.4 60 -6 -3 прохладно 1033.1 1010.0
12 16.02 СЗ 5
{11}
10 км 8/8 1260 м
[Sc]
+0.8 -8.4 50 -4 -4 прохладно 1032.1 1009.1
15 16.02 С 3 10 км 5/5 1000 м
[Sc]
-0.7 -8.2 57 -5 -5 по сезону 1032.4 1009.3
18 16.02 СВ 2 10 км ясно -4.5 -8.8 72 -8 -8 прохладно 1033.5 1010.0 +2.1
21 16.02 В 2 10 км ясно -5.8 -8.4 82 -10 -10 прохладно 1033.3 1009.7
00 17.02 ЮВ 3 10 км ясно -7.4 -9.9 82 -13 -13 холодно 1033.2 1009.5
03 17.02 ЮВ 3 10 км ясно -7.7 -10.2 82 -13 -13 холодно 1032.4 1008.7
06 17.02 ЮВ 3 10 км ясно -5.0 -8.2 78 -10 -9 прохладно 1032.0 1008.5 -8.3
09 17.02 ЮЗ 2 10 км 1/0
[Ac trans]
+0.8 -9.8 45 -2 +4 по сезону 1031.0 1008.0
12 17.02 З 3 10 км ясно +3.5 -11.3 33 +1 +4 по сезону 1028.7 1006.0
15 17.02 З 4 10 км 9/0
[Ci fib]
+0.9 -5.6 62 -4 -4 по сезону 1028.0 1005.1
18 17.02 Ю 2 10 км 5/0
[Ci fib]
-2.0 -5.8 75 -6 -6 по сезону 1027.6 1004.5 +4.1
21 17.02 ЮВ 1 10 км 10/0
[Ci fib]
-2.5 -5.0 83 -5 -5 по сезону 1026.8 1003.7
00 18.02 В 3 10 км 10/0
[Ac trans Cs]
-2.7 -5.0 84 -8 -8 по сезону 1025.5 1002.4
03 18.02 штиль 0 10 км 10/0
[Ac trans Cs]
-2.9 -5.5 82 -4 -4 по сезону 1024.3 1001.2
06 18.02 В 2 10 км 10/0
[Ac und]
-0.8 -3.5 82 -4 -4 по сезону 1024.0 1001.1 -3.7
09 18.02 СВ 2 10 км 6/0
[Ac trans Ci fib]
+6.0 -3.9 49 +4 +9 тепло 1022.8 1000.5
12 18.02 С 3 10 км 3/0
[Ci sp]
+7.8 -5.0 40 +6 +9 тепло 1021.6 999.4
15 18.02 СВ 4 10 км 3/0
[Ac trans]
+4.7 -3.1 57 +1 +1 по сезону 1022.2 999.8
18 18.02 В 4 10 км ясно -0.4 -3.3 81 -6 -6 по сезону 1023.7 1000.8 +8.5
21 18.02 ЮВ 3 10 км ясно -0.2 -3.2 80 -5 -5 по сезону 1024.9 1002.0
00 19.02 Ю 2 10 км 4/0
[Ci fib]
-1.3 -4.0 82 -5 -5 по сезону 1025.9 1002.9
03 19.02 ЮВ 3 10 км 6/0
[Ci fib]
-1.9 -3.8 87 -7 -7 по сезону 1026.7 1003.6 -2.8
06 19.02 ЮВ 3 10 км 10/8 720 м
[Sc Ci fib]
+1.3 -1.4 82 -3 -3 по сезону 1027.5 1004.7 -2.8
09 19.02 Ю 3 10 км 10/10 600 м
[Sc]
+5.5 +1.4 75 +2 +2 тепло 1028.0 1005.5
12 19.02 ЮЗ 3 10 км 10/10 660 м
[Sc]
+6.7 +1.8 71 +4 +4 по сезону 1027.3 1004.9
15 19.02 СЗ 1 10 км 4/1 600 м
[Sc Cc]
+5.4 +1.5 76 +4 +4 тепло 1027.0 1004.5
18 19.02 В 2 5000 м дымка ясно +0.7 -0.4 92 -3 -3 по сезону 1027.2 1004.3 +7.2
21 19.02 ЮВ 2 4300 м дымка ясно -0.6 -1.6 93 -4 -4 по сезону 1026.2 1003.3
00 20.02 ЮВ 3 5000 м дымка ясно -0.8 -2.1 91 -6 -6 по сезону 1025.0 1002.1
03 20.02 В 4 5000 м дымка 4/0
[Ci fib]
+0.1 -1.0 92 -5 -5 по сезону 1023.2 1000.4 -1.2
06 20.02 В 5 6000 м дымка 10/0
[Ac trans Ci fib]
+4.1 +1.6 84 -1 -0 по сезону 1021.9 999.4 -1.2
09 20.02 СВ 3 10 км 10/0
[Ac trans Ci fib]
+11.8 +3.3 56 +10 +14 тепло 1019.4 997.6
12 20.02 З 4 10 км 10/0
[Ac trans Ci fib]
+14.2 -1.4 34 +13 +15 тепло 1017.0 995.4
15 20.02 З 4 10 км 10/0
[Ac und]
+9.5 +1.7 58 +7 +7 тепло 1016.5 994.6
18 20.02 ЮЗ 3 10 км 10/3 1000 м
[Cb calv Ac und]
+6.3 +3.6 83 +3 +3 тепло 1016.8 994.6 +15.6
21 20.02 Ю 3 10 км в посл. час ливневой дождь 10/5 750 м
[Cb calv Ac und]
+4.6 +3.6 93 +1 +1 тепло 1015.2 992.9
00 21.02 ЮЗ 7-10
{10}
10 км слабый дождь {ливн. осадки} 10/6 570 м
[Frnb As op]
+3.7 +2.5 92 -2 -2 по сезону 1014.6 992.3
03 21.02 Ю 5 10 км в посл. час дождь {морось} 10/10 600 м
[Sc]
+3.3 +2.3 93 -2 -2 по сезону 1012.8 990.5
06 21.02 Ю 7-10
{10}
10 км слабый дождь {морось} 10/8 570 м
[Frnb As op]
+3.1 +2.4 95 -3 -3 по сезону 1012.0 989.7 +2.8 2
09 21.02 ЮЗ 7-10
{12}
10 км слабый дождь {морось} 10/8 870 м
[Frnb As op]
+3.4 +2.4 93 -3 -3 по сезону 1012.2 989.9
12 21.02 З 7
{11}
4200 м слабая морось {дождь} 10/10 240 м
[St]
+3.5 +2.8 95 -3 -3 прохладно 1011.5 989.2
15 21.02 ЮЗ 7 10 км {морось} 10/10 600 м
[Sc]
+4.2 +3.5 95 -2 -2 по сезону 1011.1 988.9
18 21.02 ЮЗ 7-10
{11}
10 км {морось} 10/10 750 м
[Sc]
+3.6 +2.6 93 -3 -3 по сезону 1010.4 988.2 +4.4 2

 

Местоположение метеостанции Симферополь (Крым, Россия): широта 45.03 долгота 33.97 высота над уровнем моря 181 м.

В архиве по умолчанию представлена погода в Симферополе за последнюю неделю. Архивные данные за месяц целиком и за предыдущие месяцы, начиная с января 2011 года, Вы можете получить, выбрав интересующий диапазон дат из раскрывающегося списка и нажав кнопку "Ввод!".

Внимание! Время в таблицах - всемирное. Для получения местного времени необходимо прибавить поправку, которая в Симферополе равна 3 ч.

Смотрите также архив погоды в соседних городах и на ближайших метеорологических станциях:

Погода в Белогорске (Крым, Россия) (50 км)
Погода в Евпатории (Крым, Россия) (50 км)
Погода в Алуште (Крым, Россия) (52 км)
Погода в Севастополе (город Севастополь, Россия) (57 км)
Погода в Клепинино (Крым, Россия) (58 км)
Погода в Никитском саду (Крым, Россия) (61 км)
Погода в Ай-Петри (Крым, Россия) (63 км)
Погода в Ялте (Крым, Россия) (63 км)
Погода в Херсонесском Маяке (город Севастополь, Россия) (68 км)
Погода в Стрелковом (Херсонская область, Украина) (74 км)

Пояснения к столбцам:

Ветер - указаны скорость ветра в м/с - средняя за 10 мин, порывы в срок и между сроками (в фигурных скобках) и направление, откуда дует ветер: С - северный, СВ - северо-восточный, В - восточный, ЮВ - юго-восточный, Ю - южный, ЮЗ - юго-западный, З - западный, СЗ - северо-западный.
Видимость - горизонтальная дальность видимости в метрах или километрах. При видимости от 1 до 10 км при отсутствии осадков обычно наблюдается дымка, при ухудшении видимости до 1 км и менее - туман. В сухую погоду видимость может ухудшаться дымом, пылью или мглою.
Явления - указаны атмосферные явления, наблюдавшиеся в срок или в последний час перед сроком; фигурными скобками обозначены явления, наблюдавшиеся между сроками (за 1-3 часа до срока); квадратными скобками обозначены град или гололедные отложения с указанием их диаметра в мм.
Облачность - указаны через наклонную черту общая и нижняя облачность в баллах и высота нижней границы облаков в метрах; квадратными скобками обозначены формы облаков: Ci - перистые, Cs - перисто-слоистые, Cc - перисто-кучевые, Ac - высококучевые, As - высокослоистые, Sc - слоисто-кучевые, Ns - слоисто-дождевые, Cu - кучевые, Cb - кучево-дождевые. Подробнее классификацию облаков см. в Атласе облаков (PDF).
T - Температура воздуха - температура, измеренная на высоте 2 м над землей.
Td - Температура точки росы - температура, при понижении до которой содержащийся в воздухе водяной пар достигнет насыщения.
f - Относительная влажность воздуха - влажноcть воздуха, измеренная на высоте 2 м над землей.
Te - Эффективная температура - температура, которую ощущает одетый по сезону человек в тени. Характеристика душности погоды. При расчете учитывается влияние влажности воздуха и скорости ветра на теплоощущения человека.
Tes - Эффективная температура на солнце - температура, которую ощущает человек, с поправкой на солнечный нагрев. Характеристика знойности погоды. Зависит от высоты солнца над горизонтом, облачности и скорости ветра. Ночью, в пасмурную погоду, а также при ветре 12 м/с и более поправка равна нулю.
P - Атмосферное давление - приведенное к уровню моря атмосферное давление.
Po - Атмосферное давление - измеренное на уровне метеостанции атмосферное давление.
Tmin - Минимальная температура - минимум температуры воздуха на высоте 2 м над землей.
Tmax - Максимальная температура - максимум температуры воздуха на высоте 2 м над землей.
R - Количество осадков - Количество выпавших осадков, мм. При наведении курсора мыши на число - период времени, за который выпало указанное количество осадков.
S - Снежный покров - Высота снежного покрова, см. При наведении курсора мыши на число - состояние снежного покрова и степень покрытия местности в баллах.